Boone, IA

10:28 AM CDT on August 22, 2017 (GMT -0500)
Boone Municipal

Weather History for KBNW - January, 2013

Change the Weather History Date:

Thursday, January 3, 2013

  Actual Average Record
Temperature  
Mean Temperature 20 °F -  
Max Temperature 29 °F 28 °F 51 °F (1998)
Min Temperature 11 °F 7 °F -15 °F (1979)
Degree Days  
Heating Degree Days 45    
Moisture  
Dew Point 12 °F    
Average Humidity 80    
Maximum Humidity 88    
Minimum Humidity 71    
Precipitation  
Precipitation 0.00 in - - ()
Sea Level Pressure  
Sea Level Pressure 30.28 in    
Wind  
Wind Speed 10 mph (West)    
Max Wind Speed 17 mph    
Max Gust Speed 23 mph    
Visibility 10 miles    
Events Snow    
Averages and records for this station are not official NWS values.
T = Trace of Precipitation, MM = Missing Value Source: NWS Daily Summary

Daily Weather History Graph

Daily Weather History Graph

Search for Another Location

Airport or City:

Trip Planner

Search our weather history database for the weather conditions in past years. The results will help you decide how hot, cold, wet, or windy it might be!

Date:

Astronomy

Jan. 03, 2013 Rise Set
Actual Time 7:43 AM CST 4:56 PM CST
Civil Twilight 7:12 AM CST 5:28 PM CST
Nautical Twilight 6:37 AM CST 6:03 PM CST
Astronomical Twilight 6:03 AM CST 6:37 PM CST
Moon 11:40 PM CST (1/3) 10:48 AM CST (1/3)
Length of Visible Light 10h 15m
Length of Day
9h 12m
Waning Gibbous, 65% of the Moon is Illuminated
Jan 3
Waning Gibbous
Jan 4
Last Quarter
Jan 11
New
Jan 18
First Quarter
Jan 26
Full

Hourly Weather History & Observations

Time (CST) Temp. Windchill Dew Point Humidity Pressure Visibility Wind Dir Wind Speed Gust Speed Precip Events Conditions
12:15 AM 28.4 °F 21.2 °F 22.1 °F 77% 30.15 in 10.0 mi West 6.9 mph - N/A   Overcast
12:35 AM 28.0 °F 22.8 °F 22.5 °F 80% 30.14 in 10.0 mi West 4.6 mph - N/A   Overcast
12:55 AM 27.9 °F 22.6 °F 23.0 °F 82% 30.14 in 10.0 mi West 4.6 mph - N/A   Overcast
1:15 AM 27.9 °F 20.6 °F 23.9 °F 85% 30.15 in 10.0 mi WSW 6.9 mph - N/A   Overcast
1:35 AM 27.9 °F 19.8 °F 24.4 °F 87% 30.15 in 10.0 mi West 8.1 mph - N/A Snow Light Snow
1:55 AM 28.4 °F 18.0 °F 25.2 °F 88% 30.15 in 10.0 mi West 12.7 mph 16.1 mph N/A Snow Light Snow
2:15 AM 29.1 °F 19.4 °F 25.5 °F 86% 30.15 in 10.0 mi West 11.5 mph - N/A Snow Light Snow
2:35 AM 29.3 °F 19.1 °F 25.5 °F 86% 30.16 in 10.0 mi WNW 12.7 mph - N/A   Overcast
2:55 AM 29.3 °F 19.1 °F 25.3 °F 85% 30.16 in 10.0 mi WNW 12.7 mph - N/A   Overcast
3:15 AM 29.3 °F 20.2 °F 25.3 °F 85% 30.17 in 10.0 mi WNW 10.4 mph 18.4 mph N/A   Overcast
3:35 AM 29.1 °F 19.4 °F 25.3 °F 86% 30.17 in 10.0 mi West 11.5 mph - N/A   Overcast
3:55 AM 29.1 °F 20.0 °F 25.3 °F 86% 30.17 in 10.0 mi WNW 10.4 mph - N/A   Overcast
4:15 AM 27.3 °F 16.6 °F 23.9 °F 87% 30.18 in 10.0 mi NNW 12.7 mph - N/A   Overcast
4:35 AM 26.4 °F 14.5 °F 22.8 °F 86% 30.18 in 10.0 mi NNW 15.0 mph - N/A   Overcast
4:55 AM 23.7 °F 11.5 °F 20.7 °F 88% 30.20 in 10.0 mi North 13.8 mph - N/A   Overcast
5:15 AM 21.4 °F 8.0 °F 17.8 °F 86% 30.21 in 10.0 mi North 15.0 mph 19.6 mph N/A   Overcast
5:35 AM 20.5 °F 6.9 °F 16.5 °F 85% 30.22 in 10.0 mi NNW 15.0 mph - N/A   Overcast
5:55 AM 20.1 °F 8.1 °F 16.0 °F 84% 30.23 in 10.0 mi NNW 11.5 mph - N/A   Overcast
6:15 AM 20.3 °F 9.8 °F 16.7 °F 86% 30.24 in 10.0 mi NW 9.2 mph - N/A   Overcast
6:35 AM 21.0 °F 11.4 °F 16.7 °F 83% 30.25 in 10.0 mi NW 8.1 mph 16.1 mph N/A   Overcast
6:55 AM 20.1 °F 8.1 °F 15.1 °F 81% 30.26 in 10.0 mi NW 11.5 mph - N/A   Overcast
7:15 AM 18.9 °F 5.9 °F 14.2 °F 82% 30.26 in 10.0 mi NW 12.7 mph 19.6 mph N/A   Overcast
7:35 AM 16.9 °F 2.3 °F 9.3 °F 72% 30.27 in 10.0 mi NW 15.0 mph 20.7 mph N/A   Mostly Cloudy
7:55 AM 15.6 °F 1.8 °F 8.4 °F 73% 30.28 in 10.0 mi NW 12.7 mph - N/A   Mostly Cloudy
8:15 AM 14.9 °F 0.9 °F 8.8 °F 77% 30.29 in 10.0 mi NW 12.7 mph - N/A   Scattered Clouds
8:35 AM 14.0 °F -1.4 °F 8.6 °F 79% 30.30 in 10.0 mi NW 15.0 mph 21.9 mph N/A   Scattered Clouds
8:55 AM 13.5 °F -0.9 °F 8.1 °F 79% 30.31 in 10.0 mi WNW 12.7 mph - N/A   Mostly Cloudy
9:15 AM 12.7 °F -1.8 °F 6.6 °F 77% 30.31 in 10.0 mi WNW 12.7 mph - N/A   Mostly Cloudy
9:35 AM 12.4 °F -3.5 °F 5.7 °F 75% 30.32 in 10.0 mi WNW 15.0 mph 20.7 mph N/A   Clear
9:55 AM 12.2 °F -3.1 °F 5.5 °F 75% 30.33 in 10.0 mi WNW 13.8 mph 19.6 mph N/A   Scattered Clouds
10:35 AM 12.2 °F -4.8 °F 5.0 °F 73% 30.33 in 10.0 mi WNW 17.3 mph 20.7 mph N/A   Scattered Clouds
10:55 AM 12.2 °F -4.3 °F 5.0 °F 73% 30.34 in 10.0 mi WNW 16.1 mph 21.9 mph N/A   Scattered Clouds
11:15 AM 12.7 °F -3.6 °F 5.7 °F 74% 30.34 in 10.0 mi WNW 16.1 mph - N/A   Scattered Clouds
11:35 AM 12.7 °F -4.1 °F 5.5 °F 73% 30.34 in 10.0 mi WNW 17.3 mph 23.0 mph N/A   Scattered Clouds
11:55 AM 13.1 °F -3.1 °F 5.9 °F 73% 30.33 in 10.0 mi WNW 16.1 mph 20.7 mph N/A   Scattered Clouds
12:15 PM 13.5 °F -1.5 °F 6.3 °F 73% 30.32 in 10.0 mi West 13.8 mph 19.6 mph N/A   Scattered Clouds
12:35 PM 13.8 °F -1.7 °F 6.4 °F 72% 30.32 in 10.0 mi NW 15.0 mph - N/A   Clear
12:55 PM 14.0 °F -0.8 °F 6.8 °F 73% 30.31 in 10.0 mi WNW 13.8 mph 20.7 mph N/A   Clear
1:15 PM 14.7 °F 0.7 °F 7.2 °F 72% 30.31 in 10.0 mi WNW 12.7 mph 19.6 mph N/A   Clear
1:35 PM 14.7 °F 2.1 °F 7.2 °F 72% 30.31 in 10.0 mi NW 10.4 mph - N/A   Clear
1:55 PM 14.9 °F -0.3 °F 7.3 °F 72% 30.31 in 10.0 mi WNW 15.0 mph 18.4 mph N/A   Clear
2:15 PM 14.9 °F 0.3 °F 7.3 °F 72% 30.31 in 10.0 mi WNW 13.8 mph 19.6 mph N/A   Clear
2:35 PM 15.3 °F 2.0 °F 7.5 °F 71% 30.31 in 10.0 mi WNW 11.5 mph - N/A   Clear
2:55 PM 15.4 °F 1.0 °F 7.7 °F 71% 30.32 in 10.0 mi West 13.8 mph - N/A   Clear
3:15 PM 15.3 °F 1.4 °F 7.7 °F 72% 30.33 in 10.0 mi WNW 12.7 mph - N/A   Clear
3:35 PM 15.1 °F 1.1 °F 7.7 °F 73% 30.33 in 10.0 mi WNW 12.7 mph - N/A   Clear
3:55 PM 14.9 °F 0.3 °F 7.7 °F 73% 30.34 in 10.0 mi WNW 13.8 mph 17.3 mph N/A   Clear
4:15 PM 14.7 °F 2.1 °F 8.1 °F 75% 30.34 in 10.0 mi West 10.4 mph - N/A   Clear
4:35 PM 14.5 °F 2.7 °F 8.2 °F 76% 30.34 in 10.0 mi West 9.2 mph - N/A   Clear
4:55 PM 13.8 °F 1.8 °F 7.7 °F 77% 30.35 in 10.0 mi West 9.2 mph - N/A   Clear
5:15 PM 13.3 °F 3.0 °F 7.7 °F 78% 30.35 in 10.0 mi West 6.9 mph - N/A   Clear
5:35 PM 14.5 °F 4.6 °F 8.6 °F 77% 30.35 in 10.0 mi West 6.9 mph 16.1 mph N/A   Clear
5:55 PM 12.7 °F 2.4 °F 7.7 °F 80% 30.35 in 10.0 mi WSW 6.9 mph - N/A   Scattered Clouds
6:15 PM 12.7 °F 2.4 °F 7.9 °F 81% 30.35 in 10.0 mi WSW 6.9 mph - N/A Snow Light Snow
6:35 PM 12.6 °F 1.1 °F 7.9 °F 82% 30.35 in 10.0 mi West 8.1 mph - N/A Snow Light Snow
6:55 PM 12.4 °F 3.1 °F 8.2 °F 83% 30.35 in 10.0 mi WSW 5.8 mph - N/A   Mostly Cloudy
7:15 PM 13.5 °F 4.4 °F 9.3 °F 84% 30.35 in 10.0 mi West 5.8 mph - N/A   Overcast
7:35 PM 13.6 °F 6.0 °F 9.3 °F 83% 30.33 in 10.0 mi West 4.6 mph - N/A   Overcast
7:55 PM 12.4 °F 4.6 °F 8.4 °F 84% 30.33 in 10.0 mi SW 4.6 mph - N/A   Scattered Clouds
8:15 PM 12.0 °F 4.1 °F 8.2 °F 85% 30.32 in 10.0 mi SW 4.6 mph - N/A   Clear
8:35 PM 11.7 °F 3.7 °F 8.1 °F 85% 30.32 in 10.0 mi SW 4.6 mph - N/A   Scattered Clouds
8:55 PM 12.7 °F 3.6 °F 9.3 °F 86% 30.31 in 10.0 mi SW 5.8 mph - N/A   Mostly Cloudy
9:15 PM 12.0 °F 2.7 °F 8.6 °F 86% 30.31 in 10.0 mi SW 5.8 mph - N/A   Mostly Cloudy
9:35 PM 11.7 °F 3.7 °F 8.6 °F 88% 30.31 in 10.0 mi SW 4.6 mph - N/A   Scattered Clouds
9:55 PM 11.7 °F 1.1 °F 8.4 °F 87% 30.29 in 10.0 mi SW 6.9 mph - N/A   Clear
10:15 PM 11.3 °F 1.9 °F 8.1 °F 87% 30.29 in 10.0 mi SW 5.8 mph - N/A   Clear
10:35 PM 11.1 °F -0.6 °F 8.2 °F 88% 30.28 in 10.0 mi WSW 8.1 mph - N/A   Clear
10:55 PM 12.6 °F 0.2 °F 9.3 °F 87% 30.28 in 10.0 mi SW 9.2 mph - N/A   Clear
11:15 PM 12.0 °F -0.4 °F 8.6 °F 86% 30.28 in 10.0 mi WSW 9.2 mph - N/A   Clear
11:35 PM 12.4 °F -0.8 °F 9.3 °F 88% 30.28 in 10.0 mi SW 10.4 mph - N/A   Clear
11:55 PM 12.7 °F -0.4 °F 9.1 °F 86% 30.26 in 10.0 mi SW 10.4 mph - N/A   Clear